Cosmos 1655 Rocket - Orbit

View from above orbital plane
View from above orbital plane
View from above satellite
View from above satellite

Ground track
Ground track

The orbit data is extracted from the following two-line orbital elements,

1 15752U 85041B   13139.66335913 -.00000003  00000-0 -19692-4 0   291
2 15752 082.9481 325.3017 0022823 313.6591 116.4538 13.72972626401468
Epoch (UTC): 19 May 2013 15:55:14
Eccentricity: 0.0022823
inclination: 82.9481°
perigee height: 972 km
apogee height: 1006 km
right ascension of ascending node: 325.3017°
argument of perigee: 313.6591°
revolutions per day: 13.72972626
mean anomaly at epoch: 116.4538°
orbit number at epoch: 40146

The dashed part of the orbit path shows where the satellite is in the earth's shadow,  

Developed and maintained by Chris Peat, Heavens-Above GmbH. Please read the updated FAQ before sending e-mail. Imprint. DLR